Location: Izdebno
(52.6670°N, 16.2170°E)
Time: 10:33:16
(UTC+01:00)

Transit 2A - Pass Details

Date: 05 February 2023
Orbit: 591 x 964 km, 66.7° (Epoch: 21 March)

Event Time Altitude Azimuth Distance (km) Brightness Sun altitude
Rises 17:58:02 0° 238° (WSW) 3,069 10.6 -10.9°
Reaches altitude 10° 18:00:19 10° 244° (WSW) 2,208 9.8 -11.2°
Maximum altitude 18:05:14 50° 320° (NW) 988 6.8 -12.0°
Drops below altitude 10° 18:10:45 10° 35° (NE) 2,468 8.2 -12.8°
Enters shadow 18:11:22 - 37° (NE) 2,694 8.4 -12.9°
Sets 18:13:26 0° 41° (NE) 3,465 - -13.2°
